Stations météo

Publicité
Marseille/Marignane, France (7650): Température de l'air & dewpoint: 11.02.2019 17:00:00 - 17.02.2019 17:00:00 (CET)Marseille/Marignane, France (7650): Température de l'air 5cm: 11.02.2019 17:00:00 - 17.02.2019 17:00:00 (CET)Marseille/Marignane, France (7650): Température de l'air -20cm & Température de l'air -100cm: 11.02.2019 17:00:00 - 17.02.2019 17:00:00 (CET)Marseille/Marignane, France (7650): Vitesse du vent & gusts: 11.02.2019 17:00:00 - 17.02.2019 17:00:00 (CET)Marseille/Marignane, France (7650): Direction du vent: 11.02.2019 17:00:00 - 17.02.2019 17:00:00 (CET)Marseille/Marignane, France (7650): reduced air pressure: 11.02.2019 17:00:00 - 17.02.2019 17:00:00 (CET)Marseille/Marignane, France (7650): visibility: 11.02.2019 17:00:00 - 17.02.2019 17:00:00 (CET)Marseille/Marignane, France (7650): Ensoleillement: 11.02.2019 17:00:00 - 17.02.2019 17:00:00 (CET)Marseille/Marignane, France (7650): Quantités de précipitations: 11.02.2019 17:00:00 - 17.02.2019 17:00:00 (CET)
Date & Time tt [°C] td [°C] tt 5cm [°C] tt -20cm [°C] tt -100cm [°C] ff [km/h] ff [knt] fx [km/h] fx [knt] dd ppp [hPa] vv [km] sd [min] rr [mm]
17.02.2019 17:00:00 13,5 8,3 16,6 8,9 10,6 19 10 29 16 SSE 1027,0 44 60 0,0
17.02.2019 16:00:00 14,6 8,5 17,4 8,4 10,6 16 9 31 17 S 1027,3 20 58 0,0
17.02.2019 15:00:00 14,3 8,9 18,5 7,8 10,6 21 11 35 19 S 1027,7 20 60 0,0
17.02.2019 14:00:00 15,0 8,5 20,1 7,1 10,6 20 11 32 17 S 1028,0 14 60 0,0
17.02.2019 13:00:00 15,0 7,5 15,0 6,5 10,6 7 4 21 12 SSE 1028,5 10 60 0,0
17.02.2019 12:00:00 10,6 5,4 13,8 6,0 10,6 13 7 19 11 WSW 1029,5 12 60 0,0
17.02.2019 11:00:00 11,3 5,8 13,5 5,7 10,6 3 2 9 5 WNW 1029,6 12 60 0,0
17.02.2019 10:00:00 7,7 4,6 8,0 5,7 10,6 4 2 9 5 W 1029,9 4,8 60 0,0
17.02.2019 09:00:00 5,9 3,1 -0,6 5,9 10,6 3 1 8 5 W 1029,8 9 60 0,0
17.02.2019 08:00:00 2,3 0,4 -2,1 6,1 10,6 4 2 10 5 SE 1029,5 13 3 0,0
17.02.2019 07:00:00 2,6 1,1 -1,7 6,4 10,6 5 3 9 5 S 1029,2 7 0 0,0
17.02.2019 06:00:00 2,8 1,9 -1,1 6,6 10,6 6 4 9 5 SSW 1029,1 4,4 0 0,0
17.02.2019 05:00:00 3,6 2,1 -1,4 6,8 10,6 5 3 8 4 WNW 1028,8 7 0 0,0
17.02.2019 04:00:00 4,0 2,5 -1,2 7,1 10,6 0 0 10 6 N 1029,0 7 0 0,0
17.02.2019 03:00:00 2,7 1,1 -0,8 7,4 10,6 7 4 9 5 SE 1029,5 7 0 0,0
17.02.2019 02:00:00 3,9 2,9 -1,0 7,7 10,6 6 3 8 5 SE 1029,6 6 0 0,0
17.02.2019 01:00:00 4,8 3,6 -0,4 7,9 10,6 6 3 9 5 SSE 1029,8 7 0 0,0
17.02.2019 00:00:00 4,5 3,2 0,6 8,3 10,6 6 4 9 5 SSE 1029,6 6 0 0,0
16.02.2019 23:00:00 5,6 3,8 1,8 8,5 10,6 0 0 6 4 N 1029,8 6 0 0,0
16.02.2019 22:00:00 7,0 5,9 2,4 8,8 10,6 4 2 15 8 E 1029,8 8 0 0,0
16.02.2019 21:00:00 6,2 4,0 2,7 9,0 10,6 10 6 14 8 SE 1029,6 7 0 0,0
16.02.2019 20:00:00 9,7 6,4 4,9 9,2 10,6 6 4 10 5 N 1029,6 12 0 0,0
16.02.2019 19:00:00 11,8 8,5 6,0 9,2 10,6 8 4 16 9 SE 1029,6 19 0 0,0
16.02.2019 18:00:00 13,1 8,2 12,5 9,0 10,6 11 6 21 11 S 1029,4 32 48 0,0
16.02.2019 17:00:00 15,5 6,2 18,5 8,7 10,6 14 8 21 12 S 1029,6 28 60 0,0
16.02.2019 16:00:00 16,7 4,4 19,6 8,1 10,6 15 8 26 14 S 1029,7 22 60 0,0
16.02.2019 15:00:00 15,9 4,3 20,3 7,4 10,5 5 3 7 4 W 1030,0 10 60 0,0
16.02.2019 14:00:00 15,3 3,1 18,6 6,7 10,6 4 2 9 5 W 1030,6 16 60 0,0
16.02.2019 13:00:00 13,8 3,0 17,7 6,0 10,6 5 3 10 5 W 1031,1 8 60 0,0
16.02.2019 12:00:00 12,0 3,5 16,3 5,5 10,5 5 3 9 5 W 1031,7 9 60 0,0
16.02.2019 11:00:00 10,4 3,4 12,3 5,3 10,6 4 2 7 4 N 1031,6 8 60 0,0
16.02.2019 10:00:00 7,1 3,5 7,8 5,4 10,6 4 2 6 3 W 1031,6 10 60 0,0
16.02.2019 09:00:00 6,0 3,0 -0,8 5,5 10,6 2 1 5 3 SSE 1031,4 10 60 0,0
16.02.2019 08:00:00 2,9 0,3 -2,9 5,8 10,6 4 2 6 3 SE 1031,1 10 2 0,0
16.02.2019 07:00:00 2,5 -0,1 -2,5 5,9 10,6 5 3 9 5 SSE 1030,8 12 0 0,0
16.02.2019 06:00:00 3,2 1,2 -2,4 6,2 10,6 3 2 7 4 N 1030,8 10 0 0,0
16.02.2019 05:00:00 1,7 -1,0 -1,9 6,4 10,5 6 4 10 5 SE 1030,5 13 0 0,0
16.02.2019 04:00:00 2,7 -0,8 -1,9 6,7 10,6 6 3 8 5 SE 1030,3 12 0 0,0
16.02.2019 03:00:00 1,6 -0,8 -1,9 7,0 10,6 6 3 9 5 S 1030,4 9 0 0,0
16.02.2019 02:00:00 3,5 1,4 -2,0 7,3 10,6 4 2 10 6 E 1030,7 7 0 0,0
16.02.2019 01:00:00 5,0 1,7 -0,4 7,6 10,6 6 4 14 7 ESE 1030,5 7 0 0,0
16.02.2019 00:00:00 2,6 1,3 0,2 7,9 10,6 9 5 12 7 ESE 1030,3 3,3 0 0,0
15.02.2019 23:00:00 5,6 3,6 1,0 8,2 10,6 8 4 14 8 SE 1030,1 4,8 0 0,0
15.02.2019 22:00:00 5,6 3,6 1,4 8,5 10,6 8 4 10 5 SSE 1029,9 6 0 0,0
15.02.2019 21:00:00 8,0 6,0 2,2 8,8 10,6 3 2 9 5 SSE 1029,6 4,4 0 0,0
15.02.2019 20:00:00 9,5 7,4 2,5 9,0 10,6 4 2 6 4 S 1029,5 6 0 0,0
15.02.2019 19:00:00 10,8 7,5 4,5 9,0 10,6 4 2 8 4 WNW 1029,5 7 0 0,0
15.02.2019 18:00:00 12,1 5,9 8,3 8,9 10,6 8 5 12 7 WSW 1029,3 8 46 0,0
15.02.2019 17:00:00 15,9 1,6 17,9 8,5 10,5 5 3 8 4 WSW 1029,2 26 60 0,0
15.02.2019 16:00:00 16,8 0,8 19,1 8,0 10,6 2 1 8 5 W 1029,6 17 60 0,0
15.02.2019 15:00:00 14,1 4,9 17,3 7,3 10,6 5 3 9 5 W 1030,0 11 60 0,0
15.02.2019 14:00:00 12,1 5,7 15,8 6,7 10,5 5 3 16 8 W 1030,8 10 60 0,0
15.02.2019 13:00:00 9,3 4,7 13,3 6,2 10,6 5 3 12 6 WNW 1031,6 7 60 0,0
15.02.2019 12:00:00 6,2 5,0 9,2 5,8 10,6 5 3 9 5 W 1032,4 0,6 57 0,0
15.02.2019 11:00:00 5,0 4,6 6,1 5,5 10,6 4 2 9 5 W 1032,7 0,1 48 0,0
15.02.2019 10:00:00 3,8 3,5 4,2 5,5 10,6 4 2 7 4 WNW 1032,6 0,1 3 0,0
15.02.2019 09:00:00 3,4 3,1 0,8 5,5 10,6 2 1 6 3 WSW 1032,8 0,1 0 0,0
15.02.2019 08:00:00 2,0 1,7 -0,1 5,7 10,6 2 1 5 3 ESE 1032,5 0,1 0 0,0
15.02.2019 07:00:00 2,7 2,3 -3,0 5,9 10,6 3 2 8 4 ENE 1032,2 0,1 0 0,0
15.02.2019 06:00:00 1,8 1,1 -3,2 6,1 10,6 3 2 9 5 S 1032,1 1,9 0 0,0
15.02.2019 05:00:00 1,2 0,0 -2,5 6,4 10,6 3 1 7 4 S 1031,7 2,1 0 0,0
15.02.2019 04:00:00 3,0 2,3 -2,5 6,7 10,6 2 1 6 3 SW 1032,1 2,5 0 0,0
15.02.2019 03:00:00 2,8 1,8 -1,8 6,9 10,6 2 1 8 5 S 1032,5 4,5 0 0,0
15.02.2019 02:00:00 2,5 1,5 -1,2 7,2 10,6 8 4 10 5 SE 1032,8 4,1 0 0,0
15.02.2019 01:00:00 3,2 2,0 -0,9 7,5 10,6 5 3 10 5 SSE 1032,9 4,4 0 0,0
15.02.2019 00:00:00 3,7 2,4 -0,4 7,8 10,6 4 2 8 4 SW 1033,0 5 0 0,0
14.02.2019 23:00:00 4,3 2,5 0,7 8,1 10,6 4 2 12 6 E 1032,9 6 0 0,0
14.02.2019 22:00:00 6,1 4,9 0,7 8,4 10,6 5 3 9 5 SSE 1032,9 8 0 0,0
14.02.2019 21:00:00 7,6 5,4 1,8 8,6 10,5 4 2 11 6 N 1032,9 10 0 0,0
14.02.2019 20:00:00 8,6 6,9 2,0 8,8 10,5 3 2 5 3 S 1032,9 14 0 0,0
14.02.2019 19:00:00 9,4 6,3 3,9 8,9 10,6 3 2 12 7 WSW 1032,8 26 0 0,0
14.02.2019 18:00:00 11,0 6,7 9,3 8,7 10,5 10 5 18 10 SW 1032,6 22 45 0,0
14.02.2019 17:00:00 13,9 6,0 16,4 8,4 10,5 5 3 11 6 W 1032,6 44 60 0,0
14.02.2019 16:00:00 13,7 4,0 18,0 7,9 10,6 5 3 8 4 WNW 1033,0 26 60 0,0
14.02.2019 15:00:00 14,2 3,0 17,9 7,2 10,5 6 3 11 6 W 1033,5 13 60 0,0
14.02.2019 14:00:00 13,3 3,9 17,2 6,6 10,6 8 5 14 8 WSW 1034,4 10 60 0,0
14.02.2019 13:00:00 12,9 4,3 15,8 5,9 10,5 8 4 11 6 WSW 1035,2 9 60 0,0
14.02.2019 12:00:00 10,8 4,0 14,0 5,5 10,5 6 4 14 8 W 1036,2 11 60 0,0
14.02.2019 11:00:00 8,9 2,7 13,4 5,3 10,5 4 2 9 5 N 1036,5 10 60 0,0
14.02.2019 10:00:00 7,8 3,6 7,4 5,4 10,5 2 1 5 3 NNW 1036,8 11 60 0,0
14.02.2019 09:00:00 4,5 1,9 -1,5 5,6 10,6 0 0 6 4 N 1037,1 11 60 0,0
14.02.2019 08:00:00 2,6 1,4 -3,3 5,8 10,5 3 2 7 4 WNW 1036,9 11 0 0,0
14.02.2019 07:00:00 1,3 -0,8 -2,3 6,0 10,5 5 3 9 5 SSE 1036,5 16 0 0,0
14.02.2019 06:00:00 1,4 -0,5 -1,7 6,2 10,6 6 4 13 7 SE 1036,7 14 0 0,0
14.02.2019 05:00:00 0,5 -1,4 -2,2 6,5 10,6 5 3 9 5 SSE 1036,5 14 0 0,0
14.02.2019 04:00:00 2,2 -0,4 -1,8 6,8 10,6 3 1 7 4 S 1036,3 15 0 0,0
14.02.2019 03:00:00 3,7 0,4 -1,6 7,0 10,5 4 2 8 4 NNE 1036,4 14 0 0,0
14.02.2019 02:00:00 3,0 0,1 -0,6 7,2 10,5 4 2 8 5 SSW 1036,2 13 0 0,0
14.02.2019 01:00:00 4,7 1,5 -0,1 7,6 10,6 8 4 11 6 S 1036,2 15 0 0,0
14.02.2019 00:00:00 5,2 1,9 0,7 7,8 10,6 3 2 15 8 NNE 1035,9 14 0 0,0
13.02.2019 23:00:00 6,1 4,1 1,7 8,0 10,5 8 4 16 9 ESE 1035,7 11 0 0,0
13.02.2019 22:00:00 6,8 4,5 2,5 8,3 10,5 5 3 9 5 ESE 1035,4 11 0 0,0
13.02.2019 21:00:00 8,0 4,8 3,0 8,5 10,5 5 3 13 7 SE 1035,0 19 0 0,0
13.02.2019 20:00:00 10,9 7,0 3,5 8,6 10,5 3 2 8 4 ENE 1034,6 31 0 0,0
13.02.2019 19:00:00 11,0 6,9 4,9 8,7 10,5 6 3 10 5 ENE 1034,1 37 0 0,0
13.02.2019 18:00:00 12,0 6,9 9,6 8,5 10,5 8 4 22 12 SE 1033,2 38 44 0,0
13.02.2019 17:00:00 13,5 7,5 15,7 8,1 10,5 6 4 22 12 W 1033,0 36 60 0,0
13.02.2019 16:00:00 15,0 7,0 17,8 7,6 10,5 16 8 20 11 W 1032,9 20 60 0,0
13.02.2019 15:00:00 14,8 3,3 19,5 7,0 10,6 7 4 11 6 N 1032,8 20 60 0,0
13.02.2019 14:00:00 12,7 2,0 16,9 6,4 10,5 6 4 9 5 N 1033,0 14 60 0,0
13.02.2019 13:00:00 11,9 2,1 15,6 5,8 10,5 6 3 13 7 W 1033,2 10 60 0,0
13.02.2019 12:00:00 10,2 2,1 13,2 5,4 10,5 6 3 12 7 W 1033,6 15 60 0,0
13.02.2019 11:00:00 8,5 1,9 11,6 5,2 10,5 7 4 10 6 W 1033,4 12 60 0,0
13.02.2019 10:00:00 7,1 1,0 7,2 5,3 10,5 4 2 10 5 W 1033,1 16 60 0,0
13.02.2019 09:00:00 4,3 0,6 -2,1 5,5 10,5 7 4 12 6 SE 1032,8 13 57 0,0
13.02.2019 08:00:00 0,5 -1,7 -3,6 5,7 10,5 8 5 13 7 ESE 1032,2 12 0 0,0
13.02.2019 07:00:00 -0,6 -3,3 -3,7 6,0 10,5 8 4 16 9 SE 1031,3 16 0 0,0
13.02.2019 06:00:00 1,2 -1,5 -3,4 6,2 10,5 8 4 11 6 SE 1030,6 22 0 0,0
13.02.2019 05:00:00 0,4 -2,8 -3,1 6,5 10,5 6 4 16 8 ESE 1030,0 21 0 0,0
13.02.2019 04:00:00 0,5 -2,4 -2,1 6,8 10,5 7 4 14 8 SSE 1029,6 23 0 0,0
13.02.2019 03:00:00 0,8 -2,1 -2,0 7,1 10,5 8 4 21 11 ENE 1029,5 24 0 0,0
13.02.2019 02:00:00 3,0 -1,0 -0,6 7,3 10,5 10 6 18 10 N 1029,1 34 0 0,0
13.02.2019 01:00:00 5,0 0,2 0,5 7,6 10,5 13 7 22 12 N 1028,7 36 0 0,0
13.02.2019 00:00:00 5,8 -0,1 1,5 7,8 10,5 11 6 23 13 N 1028,3 41 0 0,0
12.02.2019 23:00:00 6,9 0,1 5,2 8,0 10,5 16 9 43 23 NNW 1028,3 44 0 0,0
12.02.2019 22:00:00 7,6 0,6 6,6 8,2 10,5 33 18 55 30 NNW 1027,7 46 0 0,0
12.02.2019 21:00:00 7,8 0,5 6,8 8,4 10,5 35 19 50 27 NW 1027,4 50 0 0,0
12.02.2019 20:00:00 8,1 -1,2 6,9 8,5 10,5 26 14 56 30 WNW 1027,6 60 0 0,0
12.02.2019 19:00:00 9,4 -1,4 8,3 8,6 10,5 34 19 68 37 NW 1027,2 51 0 0,0
12.02.2019 18:00:00 10,6 -1,5 9,7 8,6 10,5 39 21 53 28 NNW 1026,6 46 41 0,0
12.02.2019 17:00:00 11,7 -0,8 11,2 8,4 10,5 22 12 38 21 NW 1027,1 39 33 0,0
12.02.2019 16:00:00 12,2 0,3 13,0 8,1 10,5 27 15 39 21 NW 1027,1 43 54 0,0
12.02.2019 15:00:00 12,9 0,6 16,2 7,7 10,5 25 13 36 19 NNW 1027,4 50 60 0,0
12.02.2019 14:00:00 13,0 0,7 16,4 7,2 10,5 22 12 28 15 NW 1027,7 60 60 0,0
12.02.2019 13:00:00 12,1 1,4 14,8 6,7 10,5 19 10 36 19 NW 1028,4 20 60 0,0
12.02.2019 12:00:00 11,0 1,0 12,7 6,4 10,5 18 10 29 16 NNW 1029,3 58 60 0,0
12.02.2019 11:00:00 8,9 0,8 11,4 6,2 10,5 9 5 19 10 NNW 1029,6 57 60 0,0
12.02.2019 10:00:00 7,7 0,9 7,2 6,3 10,5 8 5 20 11 N 1030,2 44 60 0,0
12.02.2019 09:00:00 6,1 1,0 4,1 6,5 10,5 13 7 19 11 NW 1029,6 40 54 0,0
12.02.2019 08:00:00 5,0 0,6 2,4 6,7 10,5 15 8 46 25 N 1028,9 59 0 0,0
12.02.2019 07:00:00 5,4 -0,2 2,3 6,8 10,5 16 9 34 18 N 1028,4 60 0 0,0
12.02.2019 06:00:00 6,2 0,7 4,7 7,0 10,5 17 9 40 22 N 1028,3 60 0 0,0
12.02.2019 05:00:00 6,7 1,0 4,1 7,1 10,4 26 14 45 24 NNW 1027,9 60 0 0,0
12.02.2019 04:00:00 7,0 1,1 5,8 7,2 10,5 26 14 41 22 N 1027,8 60 0 0,0
12.02.2019 03:00:00 7,1 2,0 6,2 7,3 10,5 31 17 53 28 NW 1028,1 60 0 0,0
12.02.2019 02:00:00 7,1 2,2 6,2 7,5 10,5 35 19 57 31 NW 1028,0 55 0 0,0
12.02.2019 01:00:00 7,5 2,4 6,6 7,6 10,5 36 19 61 33 NW 1027,4 58 0 0,0
12.02.2019 00:00:00 7,8 1,8 6,7 7,7 10,5 34 19 63 34 NNW 1027,1 59 0 0,0
11.02.2019 23:00:00 7,6 2,1 6,9 7,8 10,4 50 27 72 39 NW 1026,3 56 0 0,0
11.02.2019 22:00:00 8,0 1,6 7,3 8,0 10,5 49 26 75 40 NW 1026,1 53 0 0,0
11.02.2019 21:00:00 8,4 1,3 7,3 8,1 10,5 38 20 52 28 NNW 1026,6 60 0 0,0
11.02.2019 20:00:00 8,8 0,7 7,6 8,2 10,4 26 14 37 20 NNW 1026,4 60 0 0,0
11.02.2019 19:00:00 9,5 0,6 8,2 8,3 10,4 27 15 54 29 NNW 1025,9 60 0 0,0
11.02.2019 18:00:00 10,1 0,1 9,1 8,4 10,5 32 17 53 29 NW 1024,9 59 41 0,0
11.02.2019 17:00:00 11,0 0,4 12,1 8,2 10,4 39 21 60 33 NW 1024,3 33 60 0,0

tt = Température de l'air
td = dewpoint
tt 5cm = Température de l'air 5cm
tt -20cm = Température de l'air -20cm
tt -100cm = Température de l'air -100cm
ff = Vitesse du vent
fx = gusts
dd = Direction du vent
ppp = reduced air pressure
vv = visibility
sd = Ensoleillement
rr = Quantités de précipitations

stations d'obs. à proximité